Location: Grossmotten
(48.5500°N, 15.3833°E)
Time: 18:25:39
(UTC+00:00)

In-Cosmos 22 Rocket - Pass Details

Date: 15 November 2019
Orbit: 791 x 887 km, 81.2° (Epoch: 07 December)

Event Time Altitude Azimuth Distance (km) Brightness Sun altitude
Rises 04:47:12 0° 207° (SSW) 3,290 7.1 -13.0°
Reaches altitude 10° 04:49:38 10° 213° (SSW) 2,373 6.3 -12.6°
Maximum altitude 04:54:48 48° 288° (WNW) 1,060 4.3 -11.8°
Drops below altitude 10° 05:00:07 10° 2° (N) 2,441 6.5 -10.9°
Sets 05:02:39 0° 8° (N) 3,395 7.3 -10.5°
